Wind_Speed
26 25 23 21 20 21 22 22 21 20 19 18 17 17 16 15 15 15 14 14 14 13 12 11 11 10 10 9 9 8 7 8 7 7 7 7 6 5 5 5 5 6 6 5 5 5 5 5 5 5 5 5 5 5 4 5 5 5 5 5 5 5 4
27 26 25 22 20 20 21 23 23 22 21 20 19 18 18 17 17 17 16 16 15 15 14 13 12 11 10 10 9 8 7 7 7 7 7 7 7 7 6 6 6 6 6 6 5 6 5 5 5 5 5 5 6 6 5 5 4 4 4 4 4 4 4
25 24 24 23 21 20 21 21 22 22 22 21 21 20 20 20 20 20 19 18 17 16 15 14 14 13 12 11 10 10 9 8 8 8 7 7 8 8 8 7 6 6 6 6 6 6 6 6 5 5 5 5 5 6 6 5 5 4 4 4 3 3 3
24 23 23 23 21 21 22 21 21 21 22 22 22 22 22 22 22 22 21 20 19 18 17 16 15 14 13 13 11 11 11 10 9 9 9 9 9 9 8 8 7 7 7 7 7 7 7 6 6 6 6 6 6 6 6 6 5 5 5 5 4 4 4
27 26 26 25 24 23 23 22 21 20 20 22 23 23 23 23 22 22 22 21 20 19 18 17 16 15 14 13 13 12 11 11 10 10 10 10 10 9 9 9 9 9 9 9 8 8 8 8 8 8 7 7 7 7 6 6 6 6 6 5 5 5 4
29 28 28 27 27 26 25 23 22 21 20 20 21 22 22 21 20 21 21 20 20 20 19 19 18 17 16 15 14 14 13 12 12 11 11 11 11 10 10 9 9 9 10 10 10 10 10 10 10 10 9 9 8 8 8 8 7 7 7 6 6 6 5
28 26 24 23 25 26 26 25 23 22 20 19 20 20 20 19 18 17 18 18 19 19 19 20 19 19 18 17 16 15 15 14 13 13 13 13 12 11 11 10 10 10 10 10 11 11 12 12 12 12 11 11 11 10 10 10 9 9 8 8 7 7 6
28 26 22 21 23 24 25 26 25 23 22 21 20 20 20 19 17 14 13 14 15 17 18 19 20 20 19 18 17 17 17 16 15 15 15 15 14 14 13 12 11 10 10 10 11 11 12 13 13 14 14 13 13 12 12 11 11 10 10 9 9 8 7
26 25 24 25 25 24 24 26 27 25 24 24 23 22 22 21 18 15 14 13 14 15 17 19 20 20 19 18 18 17 17 17 17 17 17 17 17 16 16 15 14 13 12 12 11 11 12 13 14 15 15 14 14 14 14 14 13 12 11 11 10 9 9
25 24 24 26 27 27 26 27 28 27 25 24 23 22 22 22 20 19 18 16 15 16 17 19 21 21 20 20 19 19 19 19 19 18 18 19 18 18 18 17 17 16 15 15 14 13 12 12 13 14 15 15 15 15 15 15 15 14 13 12 12 11 10
25 26 28 28 28 29 29 28 29 28 26 25 24 23 23 23 22 22 21 18 17 17 18 19 20 20 19 20 20 21 20 20 20 19 20 20 19 19 19 19 19 18 18 17 16 16 15 15 15 15 15 15 15 15 16 16 16 15 15 15 14 13 13
24 27 30 30 30 30 31 31 32 30 28 27 27 26 26 25 24 24 24 22 20 18 18 20 20 19 19 19 20 21 21 21 21 21 20 21 21 21 20 20 20 19 18 18 17 17 17 18 18 18 17 15 15 15 15 16 16 16 16 16 16 16 15
21 26 30 30 29 29 30 32 33 33 32 29 29 28 28 27 28 27 26 26 25 22 20 21 21 19 19 20 20 20 20 20 21 21 20 20 20 20 20 20 20 19 19 19 18 18 18 18 19 19 19 18 17 16 15 15 16 16 17 17 17 17 17
20 24 27 28 27 27 28 31 32 33 33 32 31 30 30 30 30 31 30 29 29 26 22 20 19 19 19 18 18 19 18 18 18 18 18 17 17 18 18 18 18 19 19 19 19 19 19 19 19 19 19 19 19 18 17 16 17 17 17 17 17 18 18
18 20 23 25 26 25 25 27 30 32 33 34 34 33 32 31 30 32 33 31 31 29 25 21 21 22 20 17 18 19 18 17 18 17 16 15 15 16 17 17 17 17 18 18 19 19 19 20 20 19 19 19 18 18 18 18 19 19 18 18 18 18 18
12 14 15 17 20 21 22 24 27 30 33 33 34 35 33 29 29 32 32 30 30 30 28 24 23 25 22 18 19 21 20 19 18 17 16 15 15 17 17 17 17 17 17 17 18 19 19 19 20 19 18 17 17 16 17 18 19 19 19 19 19 19 19
10 10 10 11 12 15 19 22 24 28 32 33 33 34 33 29 29 31 29 30 31 28 25 24 24 25 24 20 20 22 22 22 21 19 18 17 16 17 18 18 18 18 18 18 18 18 18 18 19 19 18 18 17 17 17 17 18 18 18 19 19 20 21
11 11 12 12 12 13 15 18 22 25 28 31 31 31 32 31 30 29 29 31 31 26 23 24 25 25 24 22 22 24 25 25 24 21 20 18 17 18 19 19 19 20 20 19 19 19 18 18 19 19 19 19 18 18 18 18 17 18 18 19 19 19 20
11 11 12 12 12 11 12 14 19 22 24 27 27 28 31 31 29 28 28 29 28 27 26 26 27 28 26 24 24 26 26 26 24 23 22 21 20 21 21 22 22 22 22 22 22 21 20 20 20 20 20 20 19 19 19 19 19 20 21 21 21 21 21
14 14 15 15 15 15 14 14 17 20 22 23 23 23 25 26 25 24 24 24 24 26 26 26 27 28 27 26 25 26 26 26 25 25 25 25 24 24 25 25 26 26 26 25 25 24 24 23 22 22 22 21 21 21 21 21 21 22 24 25 25 24 24
19 18 16 16 17 18 19 20 20 20 20 20 19 18 19 20 20 20 20 19 18 19 21 22 24 25 26 26 26 26 26 25 26 26 26 26 26 27 27 28 29 31 31 29 28 28 28 26 25 25 25 24 24 23 23 23 23 24 26 29 30 28 26
24 22 19 18 18 20 22 23 21 19 19 19 19 20 20 19 18 16 15 14 14 16 17 19 20 21 23 25 26 26 26 26 27 27 28 28 29 29 29 29 32 35 35 34 32 32 31 29 28 28 28 27 26 26 26 27 26 28 31 34 34 34 32
27 26 24 22 21 22 23 22 21 20 20 21 21 22 22 21 19 17 17 16 16 17 18 19 21 22 24 26 27 27 27 28 30 30 30 30 31 32 32 33 36 39 38 37 36 35 34 32 31 31 31 30 29 29 29 30 30 33 37 38 37 37 35
27 27 26 23 23 24 24 24 25 25 24 23 22 22 22 22 22 21 21 20 19 19 19 20 21 21 22 23 24 25 25 27 28 28 27 26 27 29 31 34 38 40 41 41 40 38 37 36 34 34 33 32 32 32 33 34 34 36 39 40 39 38 36
28 28 27 24 23 25 24 23 24 26 26 24 21 21 21 21 22 21 21 21 22 21 21 20 20 20 20 20 20 21 22 24 25 26 25 24 23 23 24 27 30 34 39 42 43 41 40 38 37 37 36 35 36 37 39 39 39 39 41 42 42 41 39
25 26 27 26 24 23 21 20 20 21 23 22 21 21 22 21 21 20 20 21 22 22 22 22 21 20 19 19 20 20 21 21 22 23 23 23 23 22 21 21 23 25 30 35 38 40 40 39 39 39 39 38 38 39 40 40 40 39 39 40 40 40 40
21 19 18 20 23 22 19 17 16 16 17 19 21 22 23 22 21 19 19 20 22 23 23 22 21 22 21 22 22 22 21 22 21 21 21 21 22 21 21 21 21 22 25 28 31 35 38 41 42 41 41 40 38 37 37 37 36 36 36 36 36 35 36
23 19 16 16 18 19 18 17 17 17 16 17 19 21 22 23 22 22 21 22 23 25 24 22 23 25 24 24 24 24 24 24 23 22 22 22 22 22 22 22 23 23 23 24 26 29 32 35 37 39 41 40 39 39 39 37 37 37 36 35 36 35 34
23 21 20 19 18 17 18 18 18 18 17 17 19 21 22 23 24 24 24 24 24 25 25 24 24 25 25 24 25 25 25 25 25 25 25 25 24 23 23 23 24 24 24 25 25 26 26 27 28 30 32 32 33 35 36 34 34 34 31 28 28 28 29
22 20 19 19 19 19 19 19 19 18 18 19 20 21 23 24 25 26 26 26 26 26 26 27 27 27 26 26 27 27 27 27 27 27 27 27 27 26 25 25 25 25 25 25 26 26 26 26 26 26 27 28 29 32 32 31 31 32 29 24 21 23 25
24 23 20 19 19 19 19 20 20 20 21 21 23 24 25 26 27 28 29 29 29 29 29 29 30 30 30 29 29 30 30 29 28 28 28 28 29 29 28 27 27 27 27 26 26 27 27 27 27 26 26 27 29 31 31 30 30 30 30 29 26 24 26
25 25 25 24 23 23 22 21 22 22 23 23 24 26 27 28 29 30 30 31 32 32 31 31 32 32 32 31 31 30 30 30 30 30 30 30 31 30 30 30 29 29 29 29 28 28 28 28 28 28 27 28 29 31 30 29 29 29 31 32 32 30 29
24 25 26 27 27 28 27 27 26 25 25 25 25 26 28 29 30 31 31 32 33 34 34 34 34 34 34 34 34 33 32 32 32 33 33 33 33 32 32 32 32 32 32 31 31 30 29 28 29 29 29 30 32 32 30 28 29 30 30 31 32 32 31
23 24 25 25 26 27 28 29 29 29 29 29 29 29 29 30 31 31 32 33 34 35 36 36 37 37 37 37 37 37 38 38 37 37 37 37 36 36 35 35 35 34 34 34 34 34 33 32 32 31 31 32 33 33 33 32 32 33 33 33 33 34 33
23 23 24 25 25 25 26 27 28 29 30 31 31 31 31 31 32 32 33 34 35 36 37 37 38 39 39 40 40 40 41 41 41 41 40 40 39 39 39 38 38 38 38 37 37 37 37 37 36 35 35 35 35 35 36 35 34 35 36 36 36 37 37
21 23 24 24 25 26 26 27 27 28 29 30 31 32 32 32 32 33 34 35 36 37 38 39 40 41 41 42 42 42 43 43 43 43 42 42 41 41 41 41 41 41 41 41 41 41 41 40 40 40 40 40 40 40 39 38 36 37 38 38 37 37 39
19 20 21 22 24 25 26 27 28 28 29 30 31 32 32 33 33 33 34 34 35 36 38 40 41 42 43 44 45 45 45 45 45 44 44 44 43 43 42 42 42 42 42 43 43 44 44 44 44 43 43 43 43 43 42 41 40 39 39 39 38 38 38
17 18 19 20 21 23 24 25 26 27 28 29 30 31 32 33 34 35 35 35 35 36 37 38 40 42 43 45 46 47 47 48 47 47 47 47 47 46 46 45 45 45 44 44 45 45 46 46 47 47 46 46 45 46 46 45 44 42 41 41 40 40 40
Wind_Direction
200 202 206 205 199 202 208 211 211 211 211 211 211 214 214 210 211 212 205 197 196 198 199 195 192 192 188 183 183 183 182 185 186 183 181 183 189 193 186 186 183 174 182 201 205 203 203 197 188 187 186 179 175 171 161 160 167 168 166 171 174 172 174
199 200 202 202 198 199 205 210 211 211 211 212 213 216 217 215 213 212 208 203 199 201 204 202 198 197 196 193 190 189 190 192 196 196 195 195 201 205 199 197 197 190 194 205 206 202 201 204 207 207 204 199 192 186 179 175 178 176 167 169 178 177 180
205 204 203 203 200 198 203 208 211 212 212 213 216 219 220 218 216 214 211 208 204 202 206 208 206 201 200 200 197 196 199 200 202 203 203 205 209 214 215 212 209 207 208 210 209 207 205 204 213 223 221 218 213 204 197 194 192 191 183 175 180 189 193
209 210 210 209 205 201 203 206 207 209 209 210 213 219 222 221 218 217 214 212 209 205 207 212 213 209 206 205 205 205 207 207 207 206 207 211 215 218 224 227 225 223 223 222 218 218 219 214 215 224 228 226 227 221 215 212 205 202 200 191 190 202 211
208 212 216 216 214 210 208 207 207 207 205 205 209 215 221 222 219 218 217 216 213 210 209 211 216 217 214 212 211 213 214 215 215 213 212 216 218 221 226 230 232 232 233 235 233 229 229 227 224 225 225 224 228 230 231 230 222 216 215 209 203 205 209
207 213 217 218 218 217 213 209 208 208 205 203 205 211 219 221 219 218 219 219 216 214 211 210 214 219 220 219 218 219 220 220 222 221 221 223 223 224 227 229 231 235 238 240 241 240 236 233 232 230 229 228 226 229 233 236 235 233 232 228 224 218 215
203 209 211 214 218 219 217 213 209 209 211 210 210 214 221 225 222 218 218 220 219 216 212 209 212 218 223 224 224 225 227 228 229 228 229 232 232 232 232 232 231 234 237 240 243 245 242 239 236 233 234 234 231 230 232 235 236 238 240 239 239 238 233
199 201 198 200 207 212 215 215 213 212 215 217 217 218 223 227 228 223 218 220 220 219 216 212 213 217 222 226 228 229 231 232 234 236 237 239 238 238 238 238 237 235 238 242 244 246 246 246 244 240 237 238 237 235 235 237 238 239 241 242 243 241 239
206 204 199 200 204 204 206 210 214 215 217 219 220 220 222 225 227 224 218 219 221 218 215 214 214 215 219 224 227 229 230 231 233 235 238 240 241 240 240 240 241 240 240 243 245 247 249 251 252 249 247 245 243 241 241 242 243 243 243 243 242 242 242
212 211 208 207 206 204 201 203 210 212 212 215 216 216 217 219 223 224 221 219 220 217 212 211 213 213 214 218 223 225 227 228 230 232 235 238 240 242 242 240 240 241 240 242 244 247 249 251 253 253 252 250 248 245 245 246 247 248 248 247 247 247 249
215 213 213 212 212 212 206 202 208 211 209 209 210 210 211 215 220 223 222 222 223 222 218 214 213 212 212 215 219 222 226 227 228 230 233 236 239 242 243 242 240 240 240 240 242 245 247 249 252 254 255 255 252 249 248 250 252 252 253 255 256 256 254
222 219 216 215 217 220 215 208 207 209 210 211 211 210 210 214 220 224 223 223 225 225 221 217 215 212 211 212 216 221 225 228 228 229 231 235 238 241 243 245 244 244 243 242 242 243 244 245 248 251 253 256 258 256 254 254 256 257 256 256 258 259 258
231 228 225 221 217 222 226 221 215 211 210 213 217 218 216 215 219 223 222 222 225 227 224 219 216 215 214 212 213 219 223 227 230 231 232 236 241 244 246 248 249 248 246 245 243 243 244 245 247 249 250 252 255 257 256 255 255 256 256 255 256 257 258
235 228 228 227 223 226 233 232 228 223 218 217 219 222 222 219 219 221 222 222 223 225 225 220 216 221 226 222 216 218 223 230 234 234 234 237 244 250 253 254 254 254 253 251 247 244 244 246 247 249 250 250 250 253 255 255 254 253 253 255 257 257 258
228 226 230 233 233 235 236 232 230 228 223 220 219 219 221 223 222 223 225 224 222 222 222 217 212 216 224 228 222 217 219 228 232 231 232 236 241 247 251 253 253 254 255 256 254 250 247 247 249 250 251 251 250 249 250 252 253 253 254 254 255 257 258
220 228 234 236 236 238 237 235 234 229 223 222 222 221 221 222 226 230 230 228 225 221 218 216 216 216 217 223 228 223 222 228 233 234 235 238 243 249 252 253 251 249 249 250 254 255 251 248 249 250 250 249 246 244 245 249 252 255 255 255 256 258 260
224 237 244 242 247 252 247 241 237 231 224 223 224 224 221 220 226 232 233 233 232 227 221 219 221 219 215 219 228 229 229 231 234 237 238 238 243 249 254 257 256 254 251 247 248 251 250 247 245 245 246 245 242 240 241 246 252 256 259 260 259 259 261
229 239 246 248 257 268 261 246 238 233 227 224 222 221 218 218 223 227 229 234 235 232 229 227 224 221 220 225 231 233 232 232 235 239 242 243 245 249 254 256 256 257 257 254 251 249 248 246 243 240 239 240 241 243 244 248 254 262 267 268 267 264 263
224 230 239 242 243 250 254 247 240 238 234 228 224 220 217 217 222 227 231 235 235 232 233 232 228 226 228 232 233 232 232 232 235 239 242 245 248 250 253 256 256 256 258 258 257 254 250 248 246 244 242 241 243 248 254 259 262 266 269 271 270 268 267
238 239 243 243 242 242 244 241 235 233 234 234 233 229 222 221 225 231 235 237 237 238 240 239 236 232 232 233 233 233 237 239 242 245 248 248 248 249 250 253 255 256 256 258 258 256 254 250 248 249 249 249 250 252 257 262 265 268 272 274 271 266 263
254 253 251 248 244 239 237 234 229 225 225 226 229 226 222 223 226 229 232 235 239 243 246 247 245 242 238 236 234 236 240 244 247 251 254 253 251 250 250 254 257 258 257 257 257 256 256 253 250 250 252 253 255 255 257 258 259 263 269 272 272 270 266
259 259 255 250 243 234 230 227 219 214 214 215 218 219 220 224 226 225 225 229 235 241 246 248 248 245 242 241 242 243 244 246 250 253 255 254 253 253 254 256 259 260 259 258 257 258 259 258 256 254 253 254 255 256 258 258 258 261 264 266 267 268 268
254 254 251 248 241 231 229 229 223 219 220 220 220 223 227 232 233 232 234 236 237 240 244 248 249 249 248 250 253 254 253 254 257 257 255 253 252 253 252 252 253 257 259 259 258 258 260 261 261 260 257 255 254 256 258 260 260 263 266 266 266 266 267
244 242 242 241 236 231 230 232 233 231 227 222 219 221 228 235 239 240 242 243 243 242 242 244 245 247 248 249 251 253 254 255 257 258 257 254 253 253 253 252 252 255 258 258 257 257 258 259 260 261 260 258 256 256 258 259 259 260 262 264 265 266 266
243 241 238 235 235 234 230 228 229 226 221 220 221 222 224 228 233 236 239 242 244 244 244 244 243 243 243 244 245 246 249 251 252 254 255 255 255 256 256 256 256 256 256 257 257 257 258 259 261 262 262 262 261 260 259 260 261 260 261 263 264 264 263
235 236 230 225 225 226 221 214 212 212 213 217 224 228 229 231 232 235 239 242 245 246 247 247 247 246 244 244 245 245 247 248 250 252 253 255 256 257 257 258 260 259 259 259 259 258 257 258 260 261 263 263 262 260 259 261 262 262 262 264 265 265 263
223 217 210 209 209 208 206 208 215 222 223 222 224 228 232 235 236 235 239 244 247 248 247 248 248 247 244 244 245 247 248 250 251 252 253 255 256 256 255 254 256 258 259 259 258 257 255 255 256 259 262 263 263 261 259 260 261 262 263 265 267 268 266
239 231 224 221 214 209 213 229 244 251 243 228 223 228 232 236 237 236 237 241 244 245 246 244 244 245 244 243 244 246 248 249 251 253 254 255 257 258 258 258 257 257 257 257 256 254 254 253 253 255 258 260 262 262 261 261 262 263 264 266 267 266 263
248 244 240 241 241 237 240 249 256 258 251 237 231 232 236 239 242 242 242 243 245 247 249 248 247 247 248 248 247 246 247 248 249 251 253 255 257 260 261 262 262 262 261 260 259 257 255 254 252 252 253 254 257 259 260 261 262 259 260 266 265 257 254
246 246 243 244 249 253 254 256 256 254 250 247 243 241 241 243 246 248 250 250 250 250 252 252 252 253 255 254 253 250 249 249 250 251 253 254 256 258 260 262 263 263 263 262 262 261 260 258 256 254 253 253 255 256 256 257 257 253 252 259 260 250 250
243 244 243 242 244 247 249 250 251 248 245 244 243 244 245 245 246 249 251 253 255 255 253 252 252 253 254 255 255 254 253 253 254 254 255 256 256 257 258 260 262 263 263 263 262 261 260 259 257 255 253 253 255 256 255 253 252 252 253 256 258 256 257
244 245 246 246 246 247 247 246 247 248 246 243 241 241 243 244 245 246 248 250 253 255 255 254 252 251 251 252 252 253 253 254 256 257 258 258 259 260 260 261 261 262 263 263 263 262 260 260 259 256 253 250 250 252 255 255 254 256 259 262 265 265 264
247 249 250 250 249 249 249 248 247 246 246 245 242 241 241 242 243 244 244 245 248 250 252 253 252 251 251 251 252 252 253 254 256 257 258 259 259 260 261 262 262 261 261 262 262 262 262 262 263 261 257 253 252 253 258 263 263 261 262 265 268 269 268
247 250 252 253 253 252 251 250 249 249 249 248 247 245 243 243 243 243 243 244 244 246 247 249 250 250 250 250 251 253 255 256 257 257 258 258 258 258 258 259 260 260 261 261 261 261 262 264 265 265 264 261 260 259 262 266 269 269 268 267 267 268 269
244 247 250 253 254 255 255 255 254 254 254 254 254 254 252 251 250 248 247 246 246 246 247 248 249 250 250 250 251 252 254 256 257 258 258 258 257 257 256 256 257 257 258 260 260 261 261 262 263 264 265 265 265 265 265 266 268 270 272 271 269 268 268
244 246 248 251 253 255 256 257 257 256 256 257 258 259 260 260 258 256 253 251 250 249 250 250 250 251 251 252 252 253 254 255 256 257 259 259 258 258 257 257 256 256 257 258 259 260 261 261 261 261 262 263 265 266 267 266 265 265 268 270 271 271 270
242 244 246 249 251 252 253 254 256 256 256 257 258 259 261 262 262 261 259 257 254 253 252 252 252 252 253 253 254 254 254 254 255 255 256 258 259 259 259 259 258 258 258 258 259 260 260 261 261 261 260 261 262 263 264 265 264 264 264 266 267 269 271
239 241 243 245 247 249 250 252 253 254 255 256 257 258 259 261 262 262 263 262 260 259 257 255 255 254 254 255 255 255 255 255 255 255 255 255 257 257 258 259 258 258 258 257 257 258 259 260 260 260 260 260 260 261 262 263 264 264 264 263 264 265 267
Height
5905 5908 5911 5912 5915 5916 5917 5919 5921 5923 5925 5927 5929 5929 5930 5932 5934 5935 5936 5938 5939 5940 5941 5942 5942 5943 5944 5945 5945 5946 5947 5948 5948 5949 5950 5951 5952 5952 5953 5953 5954 5954 5954 5955 5956 5956 5956 5956 5956 5956 5956 5956 5956 5957 5957 5957 5958 5958 5958 5959 5959 5960 5960
5903 5906 5909 5911 5913 5915 5916 5917 5919 5921 5924 5926 5927 5928 5929 5930 5932 5933 5935 5936 5938 5939 5940 5941 5942 5943 5943 5944 5945 5946 5947 5948 5948 5949 5950 5951 5951 5952 5952 5953 5953 5954 5954 5954 5955 5956 5956 5956 5956 5956 5956 5956 5956 5956 5956 5957 5957 5958 5958 5958 5958 5959 5959
5903 5906 5908 5909 5911 5913 5914 5916 5917 5919 5922 5924 5926 5926 5927 5928 5930 5931 5933 5934 5936 5938 5939 5940 5941 5942 5943 5944 5945 5945 5946 5947 5948 5949 5949 5950 5950 5951 5951 5952 5953 5953 5953 5954 5954 5955 5955 5955 5955 5956 5956 5956 5956 5956 5956 5956 5957 5957 5957 5958 5958 5958 5959
5903 5905 5906 5907 5909 5911 5912 5914 5915 5917 5919 5922 5923 5924 5925 5926 5928 5929 5931 5932 5934 5936 5937 5939 5940 5941 5942 5943 5944 5945 5945 5946 5947 5948 5949 5949 5950 5950 5950 5951 5952 5952 5953 5953 5953 5954 5954 5954 5955 5955 5956 5956 5956 5956 5956 5956 5956 5957 5957 5957 5957 5958 5958
5901 5902 5903 5905 5907 5908 5910 5912 5914 5915 5917 5919 5921 5922 5922 5924 5926 5927 5929 5931 5933 5934 5936 5937 5939 5940 5941 5942 5943 5943 5944 5945 5946 5947 5948 5948 5949 5949 5949 5950 5951 5951 5951 5952 5952 5953 5953 5953 5954 5954 5955 5955 5956 5956 5956 5956 5956 5956 5956 5956 5957 5957 5957
5898 5899 5900 5903 5905 5906 5909 5911 5912 5914 5915 5918 5919 5920 5921 5922 5924 5926 5928 5929 5931 5933 5934 5936 5937 5938 5939 5940 5941 5942 5943 5944 5945 5946 5946 5947 5947 5948 5948 5949 5949 5950 5950 5951 5951 5952 5952 5952 5953 5953 5954 5955 5955 5955 5955 5955 5956 5956 5956 5956 5956 5956 5957
5894 5897 5899 5902 5903 5905 5907 5910 5912 5913 5914 5916 5918 5920 5920 5921 5923 5925 5927 5928 5930 5931 5933 5934 5935 5936 5937 5938 5939 5940 5941 5942 5943 5944 5945 5945 5946 5946 5947 5948 5948 5949 5949 5950 5950 5951 5951 5952 5952 5952 5953 5954 5954 5954 5954 5954 5955 5955 5955 5956 5956 5956 5956
5892 5894 5897 5899 5900 5902 5905 5908 5910 5912 5913 5915 5917 5919 5920 5921 5922 5924 5926 5927 5928 5929 5931 5932 5933 5934 5935 5936 5937 5938 5939 5940 5941 5942 5943 5943 5944 5945 5946 5946 5947 5948 5948 5949 5949 5950 5950 5951 5951 5951 5952 5952 5953 5953 5953 5953 5954 5954 5954 5955 5955 5956 5956
5892 5893 5895 5896 5897 5900 5902 5905 5907 5909 5911 5913 5915 5917 5919 5920 5921 5923 5924 5925 5926 5927 5928 5930 5931 5932 5933 5934 5935 5936 5937 5937 5938 5939 5940 5942 5942 5943 5944 5945 5946 5946 5947 5948 5948 5949 5950 5950 5950 5950 5951 5951 5951 5952 5952 5953 5953 5953 5954 5954 5954 5955 5955
5891 5893 5895 5895 5895 5897 5898 5901 5904 5906 5907 5910 5912 5914 5916 5918 5919 5920 5921 5923 5924 5925 5926 5927 5928 5929 5930 5931 5932 5933 5934 5935 5936 5937 5938 5939 5940 5941 5942 5943 5944 5945 5946 5946 5947 5948 5949 5949 5949 5949 5950 5950 5950 5950 5951 5951 5952 5952 5953 5953 5953 5954 5954
5889 5890 5891 5892 5893 5894 5894 5898 5902 5904 5904 5907 5909 5912 5913 5915 5916 5917 5919 5921 5922 5923 5923 5924 5926 5927 5927 5928 5929 5930 5931 5932 5933 5934 5935 5936 5937 5938 5939 5941 5942 5943 5944 5945 5945 5946 5947 5947 5948 5948 5948 5949 5949 5949 5949 5950 5950 5951 5951 5952 5952 5952 5952
5887 5888 5888 5889 5890 5892 5893 5895 5898 5901 5902 5904 5906 5908 5910 5912 5913 5914 5916 5918 5920 5921 5921 5922 5923 5924 5925 5925 5926 5927 5928 5929 5930 5931 5932 5933 5935 5936 5937 5938 5940 5941 5941 5942 5943 5943 5944 5945 5945 5946 5946 5947 5947 5947 5948 5949 5949 5949 5950 5950 5950 5950 5950
5886 5887 5887 5888 5889 5891 5892 5893 5895 5896 5898 5900 5903 5905 5907 5908 5910 5910 5912 5914 5915 5917 5918 5919 5920 5921 5922 5923 5924 5924 5926 5927 5928 5929 5930 5931 5932 5934 5935 5936 5937 5938 5939 5940 5940 5941 5941 5942 5942 5943 5943 5944 5945 5945 5946 5947 5947 5947 5947 5947 5948 5948 5948
5884 5885 5886 5888 5889 5890 5891 5891 5892 5893 5895 5898 5900 5902 5903 5904 5905 5906 5906 5907 5909 5912 5914 5916 5918 5920 5921 5922 5923 5923 5925 5926 5927 5928 5929 5930 5931 5932 5934 5935 5936 5937 5937 5937 5938 5939 5939 5939 5940 5940 5941 5942 5942 5943 5943 5944 5944 5944 5944 5945 5945 5946 5946
5882 5883 5885 5887 5889 5889 5889 5889 5889 5891 5894 5897 5898 5898 5900 5901 5902 5903 5904 5905 5907 5910 5912 5914 5916 5917 5919 5922 5922 5922 5923 5924 5925 5926 5927 5928 5929 5930 5931 5932 5934 5934 5935 5935 5936 5937 5937 5938 5938 5938 5939 5939 5940 5940 5941 5941 5941 5941 5942 5943 5943 5943 5943
5881 5883 5884 5886 5888 5888 5888 5888 5888 5890 5892 5894 5896 5897 5899 5901 5902 5903 5905 5906 5906 5909 5911 5913 5913 5914 5916 5919 5920 5920 5921 5922 5923 5924 5925 5925 5926 5927 5928 5929 5931 5931 5932 5932 5933 5934 5935 5936 5936 5936 5937 5937 5938 5938 5938 5938 5938 5939 5939 5940 5941 5941 5941
5881 5882 5883 5884 5886 5886 5886 5886 5887 5888 5890 5892 5893 5895 5897 5900 5901 5903 5905 5904 5904 5907 5910 5911 5912 5913 5914 5915 5916 5917 5918 5919 5920 5922 5922 5923 5923 5924 5925 5926 5928 5928 5929 5929 5930 5930 5931 5932 5933 5933 5934 5934 5935 5935 5935 5936 5936 5936 5937 5937 5938 5939 5939
5879 5880 5881 5882 5883 5884 5884 5884 5885 5886 5888 5889 5890 5892 5894 5896 5898 5900 5901 5901 5902 5905 5908 5909 5910 5911 5911 5911 5912 5913 5914 5915 5917 5919 5920 5921 5921 5921 5922 5923 5925 5926 5926 5927 5927 5927 5928 5929 5929 5930 5931 5931 5932 5932 5933 5933 5934 5934 5934 5935 5935 5936 5937
5877 5879 5879 5880 5882 5882 5883 5883 5884 5885 5886 5887 5887 5888 5891 5893 5895 5896 5897 5899 5900 5902 5904 5905 5906 5907 5908 5909 5910 5911 5911 5913 5914 5916 5917 5918 5919 5919 5919 5920 5922 5923 5924 5924 5924 5924 5925 5926 5926 5927 5928 5929 5930 5930 5931 5931 5932 5932 5932 5932 5933 5933 5934
5874 5876 5877 5878 5880 5881 5882 5882 5883 5883 5884 5885 5887 5888 5890 5892 5893 5894 5895 5896 5898 5899 5900 5902 5903 5904 5905 5907 5908 5909 5909 5910 5911 5912 5914 5915 5915 5916 5917 5918 5919 5920 5920 5921 5921 5922 5922 5922 5923 5924 5926 5927 5928 5929 5930 5930 5930 5929 5929 5929 5930 5930 5931
5872 5874 5876 5877 5877 5878 5880 5880 5879 5881 5882 5884 5886 5888 5890 5891 5891 5892 5893 5893 5894 5896 5897 5898 5899 5901 5902 5903 5905 5906 5907 5907 5908 5909 5910 5911 5912 5913 5914 5915 5916 5916 5917 5917 5918 5918 5918 5919 5920 5921 5923 5925 5926 5926 5927 5927 5927 5926 5926 5926 5926 5926 5927
5870 5871 5872 5874 5875 5876 5878 5877 5877 5878 5880 5882 5884 5886 5888 5888 5888 5889 5890 5891 5893 5894 5894 5895 5896 5897 5898 5899 5901 5903 5904 5905 5906 5906 5907 5907 5908 5909 5911 5913 5913 5912 5913 5914 5914 5914 5915 5915 5916 5918 5920 5922 5922 5923 5923 5923 5923 5923 5923 5923 5923 5923 5923
5868 5868 5868 5870 5873 5875 5876 5877 5877 5878 5879 5881 5882 5883 5884 5884 5885 5886 5887 5889 5891 5892 5893 5893 5894 5895 5896 5896 5897 5899 5900 5901 5902 5903 5903 5903 5904 5905 5906 5909 5909 5908 5908 5909 5910 5910 5910 5911 5912 5914 5916 5918 5919 5919 5919 5919 5920 5919 5918 5918 5918 5919 5919
5864 5865 5864 5866 5869 5871 5873 5875 5876 5877 5878 5879 5880 5880 5881 5881 5882 5883 5884 5886 5888 5889 5891 5892 5892 5893 5894 5894 5895 5896 5897 5898 5899 5900 5900 5900 5901 5901 5902 5903 5903 5903 5904 5904 5905 5906 5906 5907 5909 5910 5911 5913 5914 5914 5914 5914 5915 5914 5913 5912 5913 5914 5915
5860 5862 5863 5864 5866 5867 5869 5870 5872 5874 5875 5877 5878 5878 5878 5879 5879 5880 5882 5884 5885 5886 5887 5889 5890 5891 5891 5892 5893 5894 5894 5895 5896 5897 5897 5898 5898 5898 5898 5898 5898 5899 5899 5899 5901 5902 5903 5904 5906 5906 5907 5909 5909 5908 5908 5908 5909 5909 5908 5908 5908 5910 5911
5857 5858 5859 5861 5863 5864 5866 5867 5868 5870 5873 5875 5876 5876 5877 5877 5878 5878 5880 5881 5882 5883 5884 5886 5887 5888 5889 5890 5891 5891 5892 5893 5893 5894 5894 5895 5895 5895 5895 5895 5895 5895 5895 5896 5897 5899 5900 5902 5902 5901 5902 5903 5903 5903 5903 5903 5904 5904 5904 5904 5905 5905 5906
5855 5855 5856 5858 5860 5862 5863 5864 5866 5868 5870 5872 5873 5874 5875 5875 5876 5877 5878 5879 5879 5880 5881 5883 5884 5885 5886 5887 5887 5888 5889 5890 5890 5891 5891 5892 5892 5892 5892 5892 5892 5892 5892 5893 5893 5894 5895 5897 5897 5897 5897 5897 5897 5898 5898 5899 5900 5900 5900 5901 5902 5902 5902
5852 5854 5855 5856 5858 5860 5862 5864 5865 5867 5868 5870 5871 5872 5873 5873 5874 5875 5876 5876 5877 5877 5878 5880 5882 5882 5883 5884 5884 5885 5885 5886 5887 5887 5888 5888 5888 5889 5889 5889 5889 5889 5889 5889 5890 5890 5890 5891 5892 5892 5892 5893 5893 5892 5893 5895 5895 5895 5896 5897 5898 5899 5898
5850 5852 5854 5855 5856 5858 5861 5862 5864 5865 5866 5867 5868 5870 5870 5871 5872 5872 5873 5874 5874 5875 5875 5877 5878 5879 5879 5880 5880 5881 5881 5882 5882 5883 5883 5884 5885 5885 5885 5885 5885 5885 5886 5886 5886 5887 5887 5888 5888 5888 5888 5889 5889 5888 5888 5890 5891 5891 5892 5892 5893 5894 5893
5848 5850 5851 5853 5854 5856 5858 5859 5860 5862 5863 5864 5865 5867 5868 5868 5869 5869 5870 5870 5871 5872 5872 5873 5874 5875 5876 5876 5876 5877 5877 5877 5878 5879 5879 5880 5880 5881 5881 5881 5882 5882 5882 5882 5883 5884 5884 5884 5884 5884 5884 5885 5884 5884 5885 5887 5887 5886 5887 5887 5888 5889 5888
5846 5847 5849 5851 5853 5854 5854 5855 5857 5858 5859 5861 5862 5863 5864 5865 5866 5866 5866 5867 5867 5868 5868 5869 5870 5871 5871 5872 5872 5873 5873 5873 5874 5874 5875 5875 5876 5877 5877 5877 5878 5878 5878 5879 5879 5880 5880 5880 5881 5880 5880 5881 5880 5880 5881 5883 5882 5881 5881 5881 5882 5883 5883
5844 5845 5846 5848 5850 5851 5852 5853 5854 5855 5856 5857 5858 5859 5860 5861 5862 5862 5863 5863 5864 5864 5864 5865 5866 5866 5867 5867 5868 5868 5869 5869 5870 5870 5870 5871 5872 5872 5873 5873 5873 5874 5874 5875 5875 5875 5876 5877 5877 5877 5877 5877 5876 5876 5877 5878 5878 5878 5878 5877 5877 5878 5879
5840 5841 5842 5844 5846 5847 5848 5849 5850 5851 5852 5853 5854 5855 5856 5857 5858 5858 5859 5859 5860 5860 5860 5860 5861 5862 5863 5863 5864 5864 5864 5865 5865 5866 5866 5867 5867 5868 5868 5868 5869 5869 5870 5870 5871 5871 5872 5872 5873 5873 5873 5873 5872 5872 5872 5873 5873 5874 5874 5874 5873 5874 5875
5838 5838 5839 5840 5841 5842 5843 5844 5846 5847 5848 5849 5849 5851 5851 5852 5853 5854 5854 5855 5855 5856 5856 5856 5856 5857 5857 5858 5859 5859 5859 5860 5861 5861 5861 5862 5863 5863 5864 5864 5864 5864 5865 5865 5866 5867 5867 5868 5868 5868 5868 5868 5868 5868 5868 5868 5868 5869 5870 5870 5870 5869 5870
5835 5835 5836 5836 5837 5838 5838 5839 5841 5842 5842 5843 5844 5845 5846 5847 5847 5848 5849 5850 5850 5851 5851 5851 5851 5851 5852 5853 5854 5854 5854 5855 5855 5856 5856 5856 5857 5858 5858 5859 5859 5859 5859 5860 5860 5861 5862 5863 5863 5864 5864 5863 5864 5864 5863 5864 5864 5864 5864 5865 5866 5866 5866
5831 5832 5832 5833 5834 5834 5835 5835 5836 5837 5837 5838 5838 5839 5839 5840 5841 5842 5843 5844 5845 5845 5845 5845 5845 5846 5846 5847 5848 5848 5848 5849 5849 5850 5850 5850 5851 5852 5852 5853 5853 5854 5854 5854 5855 5855 5856 5857 5857 5858 5859 5859 5859 5859 5859 5859 5860 5860 5860 5860 5860 5860 5861
5827 5828 5829 5829 5830 5831 5831 5831 5832 5832 5833 5833 5834 5834 5834 5834 5834 5835 5836 5837 5838 5839 5839 5839 5840 5840 5841 5841 5841 5842 5842 5843 5843 5844 5844 5844 5845 5846 5846 5847 5847 5848 5848 5849 5849 5849 5849 5850 5851 5852 5853 5853 5853 5854 5854 5854 5855 5855 5855 5855 5855 5856 5856
5824 5825 5825 5826 5826 5826 5826 5827 5827 5828 5828 5828 5829 5829 5829 5829 5829 5829 5830 5830 5831 5832 5832 5833 5833 5834 5835 5835 5835 5835 5836 5836 5837 5837 5838 5838 5839 5839 5840 5840 5841 5842 5842 5843 5843 5843 5843 5844 5844 5845 5846 5847 5847 5848 5848 5848 5849 5849 5849 5850 5850 5851 5851